Location: Fort Worth, Tx
(32.7431°N, 97.3695°W)
Time: 06:23:04
(UTC-05:00)

LightSail 2 - Visible Passes

Search period start: 08 December 2019 00:00
Search period end: 18 December 2019 00:00
Orbit: 696 x 730 km, 24.0° (Epoch: 07 December)

Date Brightness Start Highest point End Pass type
(mag) Time Alt. Az. Time Alt. Az. Time Alt. Az.
08 Dec 7.0 19:33:39 10° WSW 19:37:51 25° S 19:42:02 10° SE visible
08 Dec 7.8 21:20:37 10° SW 21:21:47 12° SSW 21:21:47 12° SSW visible
09 Dec 7.5 20:21:42 10° SW 20:24:51 16° SSW 20:27:42 11° SSE visible
10 Dec 7.4 19:23:10 10° WSW 19:26:54 20° SSW 19:30:37 10° SSE visible
11 Dec 7.9 20:12:37 10° SW 20:13:49 11° SSW 20:15:00 10° S visible
12 Dec 7.8 19:13:08 10° SW 19:15:53 14° SSW 19:18:37 10° SSE visible
